User: anonymous   Login
Location: Carter Cabin
(41.0271°N, 122.9339°W)
Time: 02:37:57
(UTC+00:00)
Language:

Cosmos 1151 Rocket - Orbit

View from above orbital plane
View from above orbital plane
View from above satellite
View from above satellite

Ground track
Ground track

The orbit data is extracted from the following two-line orbital elements,

1 11672U 80005B   24167.51854171  .00000838  00000-0  85268-4 0  9994
2 11672  82.5144 186.2514 0017752 108.5917 251.7232 14.89440059382338
Epoch (UTC): 15 June 2024 12:26:42
Eccentricity: 0.0017752
inclination: 82.5144°
perigee height: 587 km
apogee height: 612 km
right ascension of ascending node: 186.2514°
argument of perigee: 108.5917°
revolutions per day: 14.89440059
mean anomaly at epoch: 251.7232°
orbit number at epoch: 38233

The dashed part of the orbit path shows where the satellite is in the earth's shadow,  

DLR